| time (UTC) | temp F | wind direction | speed MPH | gust MPH | rain 1hr in | rain 24hr in | rain mn in | humidity % | barometer mb |
| 20260505065704 | 52 | 34 | 2.0 | 5.0 | 0.17 | 0.35 | 0.35 | 90 | 1012.6 |
| 20260505065603 | 52 | 34 | 2.0 | 5.0 | 0.17 | 0.35 | 0.35 | 90 | 1012.4 |
| 20260505065504 | 52 | 31 | 1.0 | 5.0 | 0.17 | 0.35 | 0.35 | 90 | 1012.5 |
| 20260505065403 | 52 | 33 | 1.0 | 5.0 | 0.17 | 0.34 | 0.34 | 90 | 1012.5 |
| 20260505065304 | 52 | 32 | 1.0 | 5.0 | 0.17 | 0.34 | 0.34 | 90 | 1012.4 |
| 20260505065212 | 52 | 40 | 1.0 | 5.0 | 0.17 | 0.34 | 0.34 | 90 | 1012.4 |
| 20260505065104 | 52 | 57 | 1.0 | 5.0 | 0.17 | 0.33 | 0.33 | 90 | 1012.5 |
| 20260505065004 | 53 | 64 | 1.0 | 5.0 | 0.17 | 0.33 | 0.33 | 90 | 1012.5 |
| 20260505064803 | 53 | 67 | 1.0 | 3.0 | 0.17 | 0.32 | 0.32 | 90 | 1012.4 |
| 20260505064604 | 53 | 271 | 1.0 | 2.0 | 0.16 | 0.31 | 0.31 | 90 | 1012.4 |
| 20260505064504 | 53 | 304 | 1.0 | 2.0 | 0.17 | 0.31 | 0.31 | 90 | 1012.5 |
| 20260505064404 | 53 | 314 | 1.0 | 3.0 | 0.16 | 0.31 | 0.31 | 90 | 1012.3 |
| 20260505064303 | 53 | 318 | 1.0 | 4.0 | 0.17 | 0.31 | 0.31 | 90 | 1012.3 |
| 20260505064213 | 53 | 328 | 1.0 | 5.0 | 0.17 | 0.31 | 0.31 | 90 | 1012.3 |
| 20260505064004 | 53 | 337 | 3.0 | 9.0 | 0.16 | 0.30 | 0.30 | 90 | 1012.3 |
| 20260505063904 | 53 | 337 | 3.0 | 9.0 | 0.17 | 0.30 | 0.30 | 90 | 1012.3 |
| 20260505063803 | 53 | 338 | 3.0 | 9.0 | 0.16 | 0.29 | 0.29 | 90 | 1012.4 |
| 20260505063703 | 53 | 343 | 4.0 | 9.0 | 0.16 | 0.29 | 0.29 | 90 | 1012.4 |
| 20260505063603 | 53 | 344 | 4.0 | 9.0 | 0.15 | 0.28 | 0.28 | 90 | 1012.4 |
| 20260505063504 | 53 | 344 | 4.0 | 9.0 | 0.16 | 0.28 | 0.28 | 90 | 1012.4 |
| 20260505063403 | 53 | 345 | 4.0 | 9.0 | 0.16 | 0.28 | 0.28 | 90 | 1012.4 |
| 20260505063212 | 53 | 345 | 4.0 | 9.0 | 0.15 | 0.28 | 0.28 | 89 | 1012.4 |
| 20260505063104 | 53 | 345 | 3.0 | 9.0 | 0.16 | 0.28 | 0.28 | 89 | 1012.4 |
| 20260505063004 | 53 | 346 | 3.0 | 7.0 | 0.16 | 0.28 | 0.28 | 89 | 1012.4 |
| 20260505062803 | 53 | 351 | 2.0 | 6.0 | 0.16 | 0.27 | 0.27 | 89 | 1012.5 |
| 20260505062604 | 53 | 354 | 2.0 | 6.0 | 0.16 | 0.27 | 0.27 | 90 | 1012.4 |
| 20260505062304 | 53 | 357 | 2.0 | 4.0 | 0.15 | 0.25 | 0.25 | 89 | 1012.4 |
| 20260505062213 | 53 | 355 | 2.0 | 4.0 | 0.15 | 0.25 | 0.25 | 89 | 1012.5 |
| 20260505062104 | 53 | 356 | 2.0 | 4.0 | 0.15 | 0.25 | 0.25 | 89 | 1012.5 |
| 20260505061903 | 53 | 354 | 2.0 | 4.0 | 0.13 | 0.24 | 0.24 | 89 | 1012.4 |
| 20260505061803 | 53 | 354 | 2.0 | 4.0 | 0.13 | 0.24 | 0.24 | 89 | 1012.5 |
| 20260505061704 | 53 | 354 | 2.0 | 4.0 | 0.13 | 0.23 | 0.23 | 89 | 1012.4 |
| 20260505061604 | 53 | 354 | 2.0 | 4.0 | 0.13 | 0.23 | 0.23 | 89 | 1012.4 |
| 20260505061503 | 53 | 352 | 2.0 | 4.0 | 0.13 | 0.22 | 0.22 | 89 | 1012.4 |
| 20260505061404 | 53 | 353 | 2.0 | 4.0 | 0.13 | 0.22 | 0.22 | 89 | 1012.5 |
| 20260505061304 | 53 | 354 | 2.0 | 4.0 | 0.13 | 0.22 | 0.22 | 89 | 1012.5 |
| 20260505061205 | 53 | 352 | 2.0 | 4.0 | 0.12 | 0.21 | 0.21 | 89 | 1012.4 |
| 20260505061104 | 53 | 351 | 2.0 | 4.0 | 0.13 | 0.21 | 0.21 | 89 | 1012.4 |
| 20260505061004 | 53 | 351 | 2.0 | 4.0 | 0.13 | 0.21 | 0.21 | 89 | 1012.4 |
| 20260505060914 | 53 | 349 | 2.0 | 5.0 | 0.13 | 0.21 | 0.21 | 89 | 1012.4 |
| 20260505060803 | 53 | 350 | 2.0 | 5.0 | 0.12 | 0.20 | 0.20 | 89 | 1012.4 |
| 20260505060704 | 53 | 350 | 2.0 | 5.0 | 0.13 | 0.20 | 0.20 | 89 | 1012.4 |
| 20260505060603 | 53 | 350 | 2.0 | 5.0 | 0.12 | 0.20 | 0.20 | 89 | 1012.4 |
| 20260505060503 | 53 | 348 | 2.0 | 5.0 | 0.12 | 0.20 | 0.20 | 89 | 1012.4 |
| 20260505060404 | 53 | 346 | 2.0 | 5.0 | 0.12 | 0.20 | 0.20 | 89 | 1012.4 |
| 20260505060303 | 53 | 346 | 2.0 | 5.0 | 0.11 | 0.19 | 0.19 | 89 | 1012.3 |
| 20260505060204 | 53 | 345 | 2.0 | 5.0 | 0.12 | 0.19 | 0.19 | 89 | 1012.2 |
| 20260505060004 | 53 | 341 | 2.0 | 5.0 | 0.11 | 0.18 | 0.18 | 88 | 1012.3 |
| 20260505055912 | 53 | 339 | 2.0 | 5.0 | 0.11 | 0.18 | 0.18 | 88 | 1012.3 |
| 20260505055803 | 53 | 329 | 1.0 | 4.0 | 0.11 | 0.18 | 0.18 | 88 | 1012.2 |
| 20260505055704 | 53 | 304 | 1.0 | 4.0 | 0.10 | 0.17 | 0.17 | 88 | 1012.3 |
| 20260505055504 | 53 | 209 | 1.0 | 3.0 | 0.11 | 0.17 | 0.17 | 88 | 1012.2 |
| 20260505055304 | 53 | 167 | 1.0 | 3.0 | 0.11 | 0.17 | 0.17 | 88 | 1012.1 |
| 20260505055104 | 53 | 134 | 1.0 | 3.0 | 0.11 | 0.17 | 0.17 | 88 | 1012.1 |
| 20260505055003 | 53 | 83 | 1.0 | 3.0 | 0.10 | 0.16 | 0.16 | 88 | 1012.1 |
| 20260505054804 | 53 | 127 | 1.0 | 5.0 | 0.10 | 0.16 | 0.16 | 88 | 1012.2 |
| 20260505054603 | 53 | 134 | 2.0 | 5.0 | 0.10 | 0.15 | 0.15 | 88 | 1012.0 |
| 20260505054504 | 53 | 142 | 2.0 | 5.0 | 0.10 | 0.15 | 0.15 | 88 | 1012.1 |
| 20260505054403 | 53 | 145 | 2.0 | 5.0 | 0.10 | 0.15 | 0.15 | 88 | 1012.2 |
| 20260505054304 | 53 | 146 | 2.0 | 5.0 | 0.09 | 0.14 | 0.15 | 88 | 1012.1 |
| 20260505054203 | 53 | 146 | 1.0 | 5.0 | 0.09 | 0.14 | 0.14 | 88 | 1012.1 |
| 20260505054104 | 53 | 148 | 1.0 | 5.0 | 0.10 | 0.14 | 0.14 | 88 | 1012.1 |
| 20260505054004 | 53 | 151 | 1.0 | 5.0 | 0.10 | 0.14 | 0.14 | 88 | 1012.1 |
| 20260505053803 | 53 | 145 | 1.0 | 4.0 | 0.09 | 0.13 | 0.13 | 88 | 1012.1 |
| 20260505053603 | 53 | 346 | 1.0 | 3.0 | 0.09 | 0.13 | 0.13 | 87 | 1012.1 |
| 20260505053504 | 53 | 350 | 1.0 | 6.0 | 0.09 | 0.13 | 0.13 | 88 | 1012.1 |
| 20260505053403 | 53 | 353 | 2.0 | 7.0 | 0.09 | 0.13 | 0.13 | 88 | 1011.9 |
| 20260505053304 | 53 | 353 | 2.0 | 8.0 | 0.09 | 0.13 | 0.13 | 87 | 1012.0 |
| 20260505053204 | 53 | 355 | 2.0 | 8.0 | 0.09 | 0.12 | 0.12 | 87 | 1012.0 |
| 20260505053104 | 53 | 356 | 3.0 | 8.0 | 0.09 | 0.12 | 0.12 | 87 | 1012.0 |
| 20260505052910 | 53 | 358 | 3.0 | 8.0 | 0.08 | 0.11 | 0.11 | 87 | 1012.0 |
| 20260505052804 | 53 | 1 | 3.0 | 8.0 | 0.08 | 0.11 | 0.11 | 87 | 1012.0 |
| 20260505052704 | 53 | 3 | 3.0 | 8.0 | 0.08 | 0.11 | 0.11 | 87 | 1012.1 |
| 20260505052603 | 53 | 4 | 3.0 | 8.0 | 0.08 | 0.11 | 0.11 | 87 | 1012.0 |
| 20260505052403 | 53 | 6 | 2.0 | 8.0 | 0.08 | 0.11 | 0.11 | 87 | 1012.1 |
| 20260505052204 | 53 | 6 | 2.0 | 6.0 | 0.07 | 0.10 | 0.10 | 87 | 1012.1 |
| 20260505052103 | 53 | 4 | 2.0 | 6.0 | 0.07 | 0.10 | 0.10 | 87 | 1012.0 |
| 20260505052004 | 53 | 4 | 2.0 | 6.0 | 0.07 | 0.10 | 0.10 | 87 | 1012.1 |
| 20260505051912 | 53 | 2 | 2.0 | 6.0 | 0.07 | 0.10 | 0.10 | 86 | 1012.0 |
| 20260505051805 | 53 | 358 | 2.0 | 6.0 | 0.08 | 0.10 | 0.10 | 86 | 1012.0 |
| 20260505051704 | 53 | 356 | 3.0 | 6.0 | 0.07 | 0.09 | 0.09 | 86 | 1012.1 |
| 20260505051604 | 53 | 355 | 3.0 | 7.0 | 0.07 | 0.09 | 0.09 | 86 | 1012.1 |
| 20260505051503 | 53 | 356 | 3.0 | 7.0 | 0.07 | 0.09 | 0.09 | 86 | 1012.1 |
| 20260505051404 | 53 | 355 | 4.0 | 7.0 | 0.07 | 0.09 | 0.09 | 86 | 1012.0 |
| 20260505051304 | 53 | 355 | 4.0 | 7.0 | 0.07 | 0.09 | 0.09 | 86 | 1012.1 |
| 20260505051004 | 53 | 354 | 4.0 | 7.0 | 0.06 | 0.09 | 0.09 | 86 | 1012.1 |
| 20260505050912 | 53 | 354 | 4.0 | 7.0 | 0.06 | 0.09 | 0.09 | 86 | 1012.0 |
| 20260505050803 | 53 | 355 | 3.0 | 7.0 | 0.06 | 0.08 | 0.08 | 85 | 1012.1 |
| 20260505050604 | 53 | 355 | 3.0 | 6.0 | 0.06 | 0.08 | 0.08 | 85 | 1012.0 |
| 20260505050504 | 53 | 354 | 2.0 | 6.0 | 0.06 | 0.08 | 0.08 | 85 | 1012.0 |
| 20260505050404 | 54 | 353 | 2.0 | 5.0 | 0.06 | 0.08 | 0.08 | 85 | 1012.0 |
| 20260505050103 | 54 | 357 | 1.0 | 4.0 | 0.05 | 0.07 | 0.07 | 85 | 1011.9 |
| 20260505041703 | 54 | 351 | 3.0 | 5.0 | 0.02 | 0.02 | 0.02 | 81 | 1011.7 |
| 20260505041404 | 54 | 353 | 3.0 | 5.0 | 0.02 | 0.02 | 0.02 | 80 | 1011.6 |
| 20260505041304 | 54 | 354 | 3.0 | 5.0 | 0.02 | 0.02 | 0.02 | 81 | 1011.7 |
| 20260505041211 | 54 | 354 | 3.0 | 5.0 | 0.02 | 0.02 | 0.02 | 80 | 1011.6 |
| 20260505041004 | 54 | 354 | 3.0 | 5.0 | 0.02 | 0.02 | 0.02 | 80 | 1011.5 |
| 20260505040903 | 55 | 353 | 3.0 | 5.0 | 0.02 | 0.02 | 0.02 | 80 | 1011.5 |
| 20260505040704 | 55 | 358 | 4.0 | 6.0 | 0.02 | 0.02 | 0.02 | 80 | 1011.5 |
| 20260505040504 | 55 | 357 | 4.0 | 6.0 | 0.02 | 0.02 | 0.02 | 80 | 1011.4 |
| 20260505040403 | 55 | 357 | 4.0 | 6.0 | 0.02 | 0.02 | 0.02 | 80 | 1011.5 |
| 20260505040304 | 55 | 358 | 4.0 | 6.0 | 0.02 | 0.02 | 0.02 | 80 | 1011.6 |
| 20260505040212 | 55 | 357 | 4.0 | 7.0 | 0.02 | 0.02 | 0.02 | 80 | 1011.5 |
| 20260505040104 | 55 | 359 | 4.0 | 7.0 | 0.02 | 0.02 | 0.02 | 79 | 1011.5 |
| 20260505040005 | 55 | 358 | 4.0 | 7.0 | 0.02 | 0.02 | 0.02 | 79 | 1011.5 |
| 20260505035903 | 55 | 357 | 3.0 | 7.0 | 0.02 | 0.02 | 0.02 | 79 | 1011.5 |
| 20260505035604 | 55 | 354 | 3.0 | 7.0 | 0.02 | 0.02 | 0.02 | 78 | 1011.4 |
| 20260505035504 | 55 | 352 | 3.0 | 7.0 | 0.02 | 0.02 | 0.02 | 78 | 1011.4 |
| 20260505035404 | 55 | 349 | 3.0 | 7.0 | 0.02 | 0.02 | 0.02 | 78 | 1011.3 |
| 20260505035304 | 55 | 348 | 3.0 | 8.0 | 0.02 | 0.02 | 0.02 | 78 | 1011.4 |
| 20260505035104 | 56 | 348 | 3.0 | 8.0 | 0.02 | 0.02 | 0.02 | 78 | 1011.4 |
| 20260505035004 | 55 | 349 | 3.0 | 8.0 | 0.02 | 0.02 | 0.02 | 78 | 1011.3 |
| 20260505034903 | 55 | 350 | 3.0 | 8.0 | 0.02 | 0.02 | 0.02 | 77 | 1011.3 |
| 20260505034803 | 55 | 352 | 3.0 | 8.0 | 0.02 | 0.02 | 0.02 | 77 | 1011.3 |
| 20260505034604 | 55 | 354 | 3.0 | 8.0 | 0.02 | 0.02 | 0.02 | 77 | 1011.2 |
| 20260505034503 | 56 | 354 | 3.0 | 8.0 | 0.02 | 0.02 | 0.02 | 76 | 1011.3 |
| 20260505034404 | 56 | 356 | 3.0 | 8.0 | 0.02 | 0.02 | 0.02 | 75 | 1011.2 |
| 20260505034303 | 56 | 357 | 3.0 | 5.0 | 0.02 | 0.02 | 0.02 | 75 | 1011.2 |
| 20260505034211 | 56 | 356 | 3.0 | 5.0 | 0.02 | 0.02 | 0.02 | 75 | 1011.2 |
| 20260505034104 | 56 | 355 | 3.0 | 8.0 | 0.02 | 0.02 | 0.02 | 75 | 1011.2 |
| 20260505033904 | 56 | 353 | 3.0 | 8.0 | 0.01 | 0.01 | 0.01 | 75 | 1011.2 |
| 20260505033803 | 56 | 353 | 3.0 | 8.0 | 0.01 | 0.01 | 0.01 | 76 | 1011.2 |
| 20260505033603 | 56 | 352 | 4.0 | 8.0 | 0.01 | 0.01 | 0.01 | 76 | 1011.2 |
| 20260505033512 | 56 | 353 | 4.0 | 8.0 | 0.01 | 0.01 | 0.01 | 75 | 1011.2 |
| 20260505033404 | 56 | 353 | 4.0 | 8.0 | 0.01 | 0.01 | 0.01 | 75 | 1011.1 |
| 20260505033304 | 56 | 353 | 4.0 | 8.0 | 0.01 | 0.01 | 0.01 | 74 | 1011.1 |
| 20260505033204 | 56 | 356 | 4.0 | 8.0 | 0.01 | 0.01 | 0.01 | 74 | 1011.2 |
| 20260505033104 | 56 | 358 | 4.0 | 6.0 | 0.01 | 0.01 | 0.01 | 74 | 1011.2 |
| 20260505033010 | 56 | 2 | 3.0 | 6.0 | 0.01 | 0.01 | 0.01 | 74 | 1011.1 |
| 20260505032904 | 56 | 3 | 3.0 | 6.0 | 0.01 | 0.01 | 0.01 | 74 | 1011.1 |
| 20260505032803 | 56 | 3 | 2.0 | 6.0 | 0.01 | 0.01 | 0.01 | 74 | 1011.1 |
| 20260505032703 | 56 | 3 | 2.0 | 6.0 | 0.01 | 0.01 | 0.01 | 74 | 1011.1 |
| 20260505032604 | 56 | 358 | 2.0 | 6.0 | 0.01 | 0.01 | 0.01 | 74 | 1011.2 |
| 20260505032504 | 56 | 351 | 2.0 | 6.0 | 0.01 | 0.01 | 0.01 | 74 | 1011.1 |
| 20260505032304 | 56 | 168 | 2.0 | 5.0 | 0.01 | 0.01 | 0.01 | 75 | 1011.1 |
| 20260505032203 | 56 | 182 | 2.0 | 5.0 | 0.01 | 0.01 | 0.01 | 76 | 1011.2 |
| 20260505032104 | 57 | 190 | 2.0 | 5.0 | 0.01 | 0.01 | 0.01 | 77 | 1011.2 |
| 20260505032013 | 57 | 196 | 2.0 | 5.0 | 0.01 | 0.01 | 0.01 | 77 | 1011.1 |
| 20260505031704 | 57 | 204 | 2.0 | 5.0 | 0.00 | 0.00 | 0.00 | 77 | 1011.1 |
| 20260505031604 | 57 | 209 | 2.0 | 5.0 | 0.00 | 0.00 | 0.00 | 76 | 1011.2 |
| 20260505031503 | 57 | 219 | 2.0 | 5.0 | 0.00 | 0.00 | 0.00 | 75 | 1011.1 |
| 20260505031404 | 57 | 228 | 2.0 | 5.0 | 0.00 | 0.00 | 0.00 | 76 | 1011.1 |
| 20260505031310 | 57 | 237 | 2.0 | 4.0 | 0.00 | 0.00 | 0.00 | 76 | 1011.2 |
| 20260505031203 | 57 | 237 | 2.0 | 5.0 | 0.00 | 0.00 | 0.00 | 76 | 1011.2 |
| 20260505031004 | 57 | 232 | 3.0 | 5.0 | 0.00 | 0.00 | 0.00 | 77 | 1011.2 |
| 20260505030904 | 57 | 230 | 3.0 | 5.0 | 0.00 | 0.00 | 0.00 | 77 | 1011.3 |
| 20260505030810 | 57 | 229 | 3.0 | 5.0 | 0.00 | 0.00 | 0.00 | 77 | 1011.2 |
| 20260505030704 | 57 | 231 | 3.0 | 5.0 | 0.00 | 0.00 | 0.00 | 77 | 1011.2 |
| 20260505030604 | 57 | 230 | 3.0 | 5.0 | 0.00 | 0.00 | 0.00 | 76 | 1011.3 |
| 20260505030504 | 57 | 232 | 3.0 | 5.0 | 0.00 | 0.00 | 0.00 | 76 | 1011.3 |
| 20260505030203 | 58 | 250 | 3.0 | 5.0 | 0.00 | 0.00 | 0.00 | 75 | 1011.2 |
| 20260505030103 | 58 | 260 | 2.0 | 5.0 | 0.00 | 0.00 | 0.00 | 75 | 1011.2 |
| 20260505030004 | 58 | 273 | 2.0 | 5.0 | 0.00 | 0.00 | 0.00 | 75 | 1011.2 |
| 20260505025903 | 58 | 289 | 2.0 | 4.0 | 0.00 | 0.00 | 0.00 | 75 | 1011.1 |
| 20260505025804 | 58 | 294 | 2.0 | 4.0 | 0.00 | 0.00 | 0.00 | 75 | 1011.1 |
| 20260505025703 | 58 | 295 | 2.0 | 4.0 | 0.00 | 0.00 | 0.00 | 75 | 1011.1 |
| 20260505025403 | 58 | 309 | 2.0 | 4.0 | 0.00 | 0.00 | 0.00 | 75 | 1011.1 |
| 20260505025305 | 58 | 312 | 2.0 | 4.0 | 0.00 | 0.00 | 0.00 | 74 | 1011.1 |
| 20260505025204 | 58 | 314 | 2.0 | 4.0 | 0.00 | 0.00 | 0.00 | 74 | 1011.1 |
| 20260505025104 | 58 | 321 | 2.0 | 4.0 | 0.00 | 0.00 | 0.00 | 74 | 1011.1 |
| 20260505025004 | 58 | 326 | 2.0 | 3.0 | 0.00 | 0.00 | 0.00 | 73 | 1011.2 |
| 20260505024909 | 58 | 326 | 2.0 | 3.0 | 0.00 | 0.00 | 0.00 | 73 | 1011.3 |
| 20260505024803 | 58 | 331 | 1.0 | 3.0 | 0.00 | 0.00 | 0.00 | 72 | 1011.2 |
| 20260505024503 | 59 | 338 | 1.0 | 4.0 | 0.00 | 0.00 | 0.00 | 70 | 1011.1 |
| 20260505024403 | 59 | 335 | 1.0 | 4.0 | 0.00 | 0.00 | 0.00 | 70 | 1011.2 |
| 20260505024303 | 59 | 336 | 1.0 | 4.0 | 0.00 | 0.00 | 0.00 | 70 | 1011.2 |
| 20260505024203 | 59 | 336 | 1.0 | 4.0 | 0.00 | 0.00 | 0.00 | 70 | 1011.2 |
| 20260505024103 | 59 | 338 | 1.0 | 4.0 | 0.00 | 0.00 | 0.00 | 70 | 1011.2 |
| 20260505024003 | 58 | 347 | 2.0 | 5.0 | 0.00 | 0.00 | 0.00 | 70 | 1011.2 |
| 20260505023913 | 58 | 347 | 2.0 | 5.0 | 0.00 | 0.00 | 0.00 | 70 | 1011.2 |
| 20260505023703 | 58 | 345 | 1.0 | 5.0 | 0.00 | 0.00 | 0.00 | 69 | 1011.2 |
| 20260505023603 | 58 | 353 | 1.0 | 5.0 | 0.00 | 0.00 | 0.00 | 70 | 1011.1 |
| 20260505023504 | 58 | 7 | 1.0 | 5.0 | 0.00 | 0.00 | 0.00 | 70 | 1011.3 |
| 20260505023404 | 58 | 45 | 1.0 | 5.0 | 0.00 | 0.00 | 0.00 | 70 | 1011.2 |
| 20260505023304 | 58 | 86 | 1.0 | 5.0 | 0.00 | 0.00 | 0.00 | 70 | 1011.2 |
| 20260505023211 | 58 | 115 | 1.0 | 5.0 | 0.00 | 0.00 | 0.00 | 69 | 1011.3 |
| 20260505023103 | 58 | 128 | 1.0 | 5.0 | 0.00 | 0.00 | 0.00 | 70 | 1011.1 |
| 20260505023004 | 59 | 157 | 0.0 | 2.0 | 0.00 | 0.00 | 0.00 | 70 | 1011.3 |
| 20260505022903 | 59 | 159 | 0.0 | 2.0 | 0.00 | 0.00 | 0.00 | 70 | 1011.3 |
| 20260505022803 | 59 | 160 | 0.0 | 2.0 | 0.00 | 0.00 | 0.00 | 70 | 1011.2 |
| 20260505022704 | 59 | 160 | 1.0 | 3.0 | 0.00 | 0.00 | 0.00 | 69 | 1011.2 |
| 20260505022603 | 59 | 159 | 1.0 | 3.0 | 0.00 | 0.00 | 0.00 | 68 | 1011.2 |
| 20260505022404 | 59 | 153 | 1.0 | 3.0 | 0.00 | 0.00 | 0.00 | 69 | 1011.2 |
| 20260505022304 | 59 | 152 | 1.0 | 3.0 | 0.00 | 0.00 | 0.00 | 68 | 1011.2 |
| 20260505022204 | 59 | 150 | 1.0 | 3.0 | 0.00 | 0.00 | 0.00 | 68 | 1011.2 |
| 20260505022104 | 59 | 150 | 1.0 | 3.0 | 0.00 | 0.00 | 0.00 | 67 | 1011.2 |
| 20260505021903 | 59 | 149 | 1.0 | 3.0 | 0.00 | 0.00 | 0.00 | 67 | 1011.2 |
| 20260505021808 | 59 | 147 | 0.0 | 3.0 | 0.00 | 0.00 | 0.00 | 67 | 1011.2 |
| 20260505021704 | 59 | 136 | 0.0 | 3.0 | 0.00 | 0.00 | 0.00 | 67 | 1011.3 |
| 20260505021604 | 59 | 70 | 0.0 | 1.0 | 0.00 | 0.00 | 0.00 | 67 | 1011.3 |
| 20260505021504 | 59 | 9 | 0.0 | 1.0 | 0.00 | 0.00 | 0.00 | 67 | 1011.3 |
| 20260505021411 | 59 | 3 | 0.0 | 1.0 | 0.00 | 0.00 | 0.00 | 67 | 1011.2 |
| 20260505021304 | 59 | 2 | 0.0 | 1.0 | 0.00 | 0.00 | 0.00 | 67 | 1011.2 |
| 20260505021203 | 59 | 2 | 0.0 | 1.0 | 0.00 | 0.00 | 0.00 | 67 | 1011.2 |
| 20260505021108 | 59 | 3 | 0.0 | 1.0 | 0.00 | 0.00 | 0.00 | 66 | 1011.2 |
| 20260505020803 | 59 | 352 | 1.0 | 3.0 | 0.00 | 0.00 | 0.00 | 65 | 1011.2 |
| 20260505020704 | 59 | 349 | 1.0 | 3.0 | 0.00 | 0.00 | 0.00 | 65 | 1011.2 |
| 20260505020603 | 59 | 354 | 1.0 | 3.0 | 0.00 | 0.00 | 0.00 | 65 | 1011.3 |
| 20260505020504 | 59 | 346 | 1.0 | 4.0 | 0.00 | 0.00 | 0.00 | 65 | 1011.3 |
| 20260505020203 | 59 | 325 | 2.0 | 4.0 | 0.00 | 0.00 | 0.00 | 65 | 1011.4 |
| 20260505020103 | 59 | 320 | 2.0 | 4.0 | 0.00 | 0.00 | 0.00 | 65 | 1011.3 |
| 20260505020004 | 59 | 308 | 2.0 | 4.0 | 0.00 | 0.00 | 0.00 | 65 | 1011.4 |
| 20260505015904 | 59 | 300 | 2.0 | 4.0 | 0.00 | 0.00 | 0.00 | 64 | 1011.4 |
| 20260505015804 | 59 | 296 | 1.0 | 4.0 | 0.00 | 0.00 | 0.00 | 64 | 1011.5 |
| 20260505015707 | 59 | 286 | 1.0 | 4.0 | 0.00 | 0.00 | 0.00 | 65 | 1011.5 |
| 20260505015503 | 59 | 264 | 1.0 | 3.0 | 0.00 | 0.00 | 0.00 | 66 | 1011.6 |
| 20260505015304 | 59 | 270 | 1.0 | 2.0 | 0.00 | 0.00 | 0.00 | 67 | 1011.6 |
| 20260505015204 | 59 | 271 | 1.0 | 2.0 | 0.00 | 0.00 | 0.00 | 68 | 1011.6 |
| 20260505015103 | 59 | 277 | 1.0 | 2.0 | 0.00 | 0.00 | 0.00 | 68 | 1011.5 |
| 20260505015007 | 59 | 280 | 1.0 | 2.0 | 0.00 | 0.00 | 0.00 | 68 | 1011.5 |
| 20260505014903 | 59 | 286 | 1.0 | 2.0 | 0.00 | 0.00 | 0.00 | 68 | 1011.5 |
| 20260505014804 | 59 | 298 | 1.0 | 2.0 | 0.00 | 0.00 | 0.00 | 68 | 1011.6 |
| 20260505014704 | 59 | 308 | 1.0 | 2.0 | 0.00 | 0.00 | 0.00 | 68 | 1011.6 |
| 20260505014603 | 59 | 316 | 1.0 | 2.0 | 0.00 | 0.00 | 0.00 | 67 | 1011.7 |
| 20260505014504 | 59 | 327 | 1.0 | 2.0 | 0.00 | 0.00 | 0.00 | 68 | 1011.6 |
| 20260505014403 | 59 | 337 | 1.0 | 2.0 | 0.00 | 0.00 | 0.00 | 68 | 1011.6 |
| 20260505014204 | 59 | 349 | 1.0 | 3.0 | 0.00 | 0.00 | 0.00 | 67 | 1011.6 |
| 20260505014103 | 59 | 350 | 1.0 | 3.0 | 0.00 | 0.00 | 0.00 | 67 | 1011.6 |
| 20260505014003 | 59 | 349 | 1.0 | 3.0 | 0.00 | 0.00 | 0.00 | 67 | 1011.6 |
| 20260505013803 | 59 | 344 | 1.0 | 3.0 | 0.00 | 0.00 | 0.00 | 66 | 1011.7 |
| 20260505013704 | 59 | 343 | 1.0 | 3.0 | 0.00 | 0.00 | 0.00 | 66 | 1011.7 |
| 20260505013606 | 59 | 340 | 1.0 | 3.0 | 0.00 | 0.00 | 0.00 | 66 | 1011.8 |
| 20260505013504 | 59 | 338 | 1.0 | 3.0 | 0.00 | 0.00 | 0.00 | 65 | 1011.6 |
| 20260505013404 | 60 | 335 | 1.0 | 3.0 | 0.00 | 0.00 | 0.00 | 66 | 1011.6 |
| 20260505013304 | 60 | 331 | 1.0 | 3.0 | 0.00 | 0.00 | 0.00 | 66 | 1011.6 |
| 20260505013203 | 60 | 325 | 1.0 | 3.0 | 0.00 | 0.00 | 0.00 | 66 | 1011.6 |
| 20260505013105 | 60 | 321 | 1.0 | 3.0 | 0.00 | 0.00 | 0.00 | 65 | 1011.6 |
| 20260505013003 | 60 | 317 | 1.0 | 3.0 | 0.00 | 0.00 | 0.00 | 65 | 1011.7 |
| 20260505012907 | 60 | 310 | 0.0 | 2.0 | 0.00 | 0.00 | 0.00 | 64 | 1011.7 |
| 20260505012703 | 60 | 309 | 0.0 | 1.0 | 0.00 | 0.00 | 0.00 | 64 | 1011.7 |
| 20260505012603 | 60 | 309 | 0.0 | 1.0 | 0.00 | 0.00 | 0.00 | 64 | 1011.7 |
| 20260505012504 | 60 | 309 | 0.0 | 1.0 | 0.00 | 0.00 | 0.00 | 64 | 1011.7 |
| 20260505012403 | 60 | 309 | 0.0 | 1.0 | 0.00 | 0.00 | 0.00 | 65 | 1011.8 |
| 20260505012304 | 60 | 309 | 0.0 | 1.0 | 0.00 | 0.00 | 0.00 | 65 | 1011.7 |
| 20260505012104 | 60 | 309 | 0.0 | 1.0 | 0.00 | 0.00 | 0.00 | 65 | 1011.8 |
| 20260505012004 | 60 | 309 | 0.0 | 1.0 | 0.00 | 0.00 | 0.00 | 65 | 1011.8 |
| 20260505011903 | 60 | 309 | 0.0 | 2.0 | 0.00 | 0.00 | 0.00 | 65 | 1011.9 |
| 20260505011603 | 60 | 309 | 1.0 | 2.0 | 0.00 | 0.00 | 0.00 | 65 | 1011.9 |
| 20260505011507 | 60 | 309 | 1.0 | 2.0 | 0.00 | 0.00 | 0.00 | 65 | 1011.8 |
| 20260505011404 | 60 | 309 | 1.0 | 2.0 | 0.00 | 0.00 | 0.00 | 66 | 1011.8 |
| 20260505011304 | 60 | 309 | 1.0 | 2.0 | 0.00 | 0.00 | 0.00 | 66 | 1011.8 |
| 20260505011203 | 60 | 309 | 1.0 | 2.0 | 0.00 | 0.00 | 0.00 | 66 | 1011.9 |
| 20260505011103 | 60 | 309 | 1.0 | 2.0 | 0.00 | 0.00 | 0.00 | 66 | 1012.0 |
| 20260505011004 | 60 | 309 | 1.0 | 2.0 | 0.00 | 0.00 | 0.00 | 66 | 1011.9 |
| 20260505010604 | 60 | 304 | 1.0 | 3.0 | 0.00 | 0.00 | 0.00 | 66 | 1012.0 |
| 20260505010504 | 60 | 302 | 1.0 | 3.0 | 0.00 | 0.00 | 0.00 | 67 | 1012.0 |
| 20260505010403 | 60 | 300 | 1.0 | 3.0 | 0.00 | 0.00 | 0.00 | 67 | 1012.1 |
| 20260505010004 | 60 | 284 | 1.0 | 3.0 | 0.00 | 0.00 | 0.00 | 67 | 1012.1 |
| 20260505005904 | 60 | 277 | 1.0 | 3.0 | 0.00 | 0.00 | 0.00 | 67 | 1012.2 |
| 20260505005804 | 60 | 270 | 1.0 | 2.0 | 0.00 | 0.00 | 0.00 | 67 | 1012.2 |
| 20260505005604 | 60 | 255 | 0.0 | 2.0 | 0.00 | 0.00 | 0.00 | 67 | 1012.2 |
| 20260505005504 | 60 | 248 | 1.0 | 2.0 | 0.00 | 0.00 | 0.00 | 67 | 1012.2 |
| 20260505005406 | 60 | 242 | 1.0 | 2.0 | 0.00 | 0.00 | 0.00 | 67 | 1012.2 |
| 20260505005304 | 60 | 234 | 1.0 | 3.0 | 0.00 | 0.00 | 0.00 | 67 | 1012.3 |
| 20260505005204 | 60 | 236 | 1.0 | 3.0 | 0.00 | 0.00 | 0.00 | 67 | 1012.4 |
| 20260505005104 | 60 | 236 | 1.0 | 3.0 | 0.00 | 0.00 | 0.00 | 67 | 1012.3 |
| 20260505005004 | 59 | 236 | 1.0 | 3.0 | 0.00 | 0.00 | 0.00 | 67 | 1012.4 |
| 20260505004803 | 59 | 235 | 1.0 | 3.0 | 0.00 | 0.00 | 0.00 | 67 | 1012.4 |
| 20260505004706 | 59 | 235 | 1.0 | 3.0 | 0.00 | 0.00 | 0.00 | 67 | 1012.5 |
| 20260505004604 | 59 | 235 | 1.0 | 3.0 | 0.00 | 0.00 | 0.00 | 67 | 1012.4 |
| 20260505004503 | 60 | 234 | 1.0 | 3.0 | 0.00 | 0.00 | 0.00 | 67 | 1012.5 |
| 20260505004403 | 60 | 235 | 1.0 | 3.0 | 0.00 | 0.00 | 0.00 | 67 | 1012.5 |
| 20260505004204 | 60 | 235 | 1.0 | 3.0 | 0.00 | 0.00 | 0.00 | 67 | 1012.5 |
| 20260505004103 | 60 | 235 | 1.0 | 3.0 | 0.00 | 0.00 | 0.00 | 67 | 1012.5 |
| 20260505004006 | 60 | 235 | 1.0 | 3.0 | 0.00 | 0.00 | 0.00 | 67 | 1012.6 |
| 20260505003903 | 60 | 235 | 1.0 | 2.0 | 0.00 | 0.00 | 0.00 | 67 | 1012.5 |
| 20260505003704 | 60 | 235 | 1.0 | 2.0 | 0.00 | 0.00 | 0.00 | 67 | 1012.6 |
| 20260505003603 | 60 | 235 | 1.0 | 2.0 | 0.00 | 0.00 | 0.00 | 67 | 1012.6 |
| 20260505003504 | 60 | 235 | 1.0 | 3.0 | 0.00 | 0.00 | 0.00 | 67 | 1012.6 |
| 20260505003403 | 60 | 235 | 1.0 | 3.0 | 0.00 | 0.00 | 0.00 | 67 | 1012.7 |
| 20260505003204 | 60 | 235 | 1.0 | 3.0 | 0.00 | 0.00 | 0.00 | 67 | 1012.6 |
| 20260505003104 | 60 | 237 | 1.0 | 3.0 | 0.00 | 0.00 | 0.00 | 67 | 1012.6 |
| 20260505003005 | 60 | 238 | 1.0 | 3.0 | 0.00 | 0.00 | 0.00 | 66 | 1012.7 |
| 20260505002905 | 60 | 239 | 1.0 | 3.0 | 0.00 | 0.00 | 0.00 | 66 | 1012.7 |
| 20260505002804 | 60 | 242 | 1.0 | 3.0 | 0.00 | 0.00 | 0.00 | 66 | 1012.7 |
| 20260505002703 | 60 | 244 | 1.0 | 3.0 | 0.00 | 0.00 | 0.00 | 66 | 1012.7 |
| 20260505002504 | 60 | 254 | 1.0 | 3.0 | 0.00 | 0.00 | 0.00 | 65 | 1012.8 |
| 20260505002404 | 60 | 263 | 1.0 | 3.0 | 0.00 | 0.00 | 0.00 | 64 | 1012.7 |
| 20260505002304 | 60 | 275 | 1.0 | 2.0 | 0.00 | 0.00 | 0.00 | 65 | 1012.8 |
| 20260505002204 | 60 | 290 | 1.0 | 2.0 | 0.00 | 0.00 | 0.00 | 65 | 1012.8 |
| 20260505002004 | 60 | 292 | 0.0 | 2.0 | 0.00 | 0.00 | 0.00 | 65 | 1012.9 |
| 20260505001803 | 60 | 292 | 0.0 | 2.0 | 0.00 | 0.00 | 0.00 | 65 | 1012.8 |
| 20260505001703 | 60 | 292 | 0.0 | 2.0 | 0.00 | 0.00 | 0.00 | 65 | 1012.9 |
| 20260505001504 | 60 | 292 | 0.0 | 2.0 | 0.00 | 0.00 | 0.00 | 65 | 1012.9 |
| 20260505001404 | 60 | 291 | 0.0 | 2.0 | 0.00 | 0.00 | 0.00 | 65 | 1012.8 |
| 20260505001303 | 60 | 284 | 0.0 | 2.0 | 0.00 | 0.00 | 0.00 | 65 | 1012.8 |
| 20260505001209 | 60 | 271 | 0.0 | 2.0 | 0.00 | 0.00 | 0.00 | 65 | 1012.8 |
| 20260505001104 | 60 | 266 | 0.0 | 2.0 | 0.00 | 0.00 | 0.00 | 65 | 1012.8 |
| 20260505001004 | 60 | 260 | 0.0 | 2.0 | 0.00 | 0.00 | 0.00 | 65 | 1012.8 |
| 20260505000904 | 60 | 244 | 0.0 | 2.0 | 0.00 | 0.00 | 0.00 | 65 | 1012.6 |
| 20260505000803 | 60 | 233 | 0.0 | 4.0 | 0.00 | 0.00 | 0.00 | 65 | 1012.8 |
| 20260505000703 | 60 | 219 | 1.0 | 4.0 | 0.00 | 0.00 | 0.00 | 65 | 1012.8 |
| 20260505000604 | 60 | 211 | 1.0 | 5.0 | 0.00 | 0.00 | 0.00 | 65 | 1012.8 |
| 20260505000304 | 60 | 206 | 2.0 | 5.0 | 0.00 | 0.00 | 0.00 | 66 | 1012.9 |
| 20260505000004 | 60 | 210 | 3.0 | 5.0 | 0.00 | 0.00 | 0.00 | 66 | 1013.0 |
| 20260504235903 | 59 | 210 | 3.0 | 5.0 | 0.00 | 0.00 | 0.00 | 66 | 1013.0 |
| 20260504235810 | 59 | 212 | 3.0 | 5.0 | 0.00 | 0.00 | 0.00 | 66 | 1013.0 |
| 20260504235703 | 59 | 213 | 3.0 | 5.0 | 0.00 | 0.00 | 0.00 | 66 | 1013.0 |
| 20260504235604 | 60 | 216 | 3.0 | 5.0 | 0.00 | 0.00 | 0.00 | 66 | 1013.0 |
| 20260504235503 | 59 | 220 | 3.0 | 5.0 | 0.00 | 0.00 | 0.00 | 66 | 1013.0 |
| 20260504235403 | 60 | 224 | 2.0 | 5.0 | 0.00 | 0.00 | 0.00 | 66 | 1013.0 |
| 20260504235304 | 60 | 228 | 2.0 | 5.0 | 0.00 | 0.00 | 0.00 | 66 | 1013.1 |
| 20260504235203 | 60 | 232 | 2.0 | 5.0 | 0.00 | 0.00 | 0.00 | 66 | 1013.0 |
| 20260504235107 | 60 | 240 | 2.0 | 5.0 | 0.00 | 0.00 | 0.00 | 65 | 1013.1 |
| 20260504235003 | 60 | 248 | 1.0 | 5.0 | 0.00 | 0.00 | 0.00 | 65 | 1013.2 |
| 20260504234903 | 60 | 259 | 1.0 | 3.0 | 0.00 | 0.00 | 0.00 | 65 | 1013.2 |
| 20260504234803 | 60 | 270 | 1.0 | 3.0 | 0.00 | 0.00 | 0.00 | 64 | 1013.0 |
| 20260504234704 | 60 | 285 | 1.0 | 3.0 | 0.00 | 0.00 | 0.00 | 64 | 1013.1 |
| 20260504234604 | 61 | 297 | 1.0 | 2.0 | 0.00 | 0.00 | 0.00 | 63 | 1013.0 |
| 20260504234503 | 61 | 297 | 1.0 | 2.0 | 0.00 | 0.00 | 0.00 | 63 | 1013.1 |
| 20260504234407 | 61 | 298 | 0.0 | 2.0 | 0.00 | 0.00 | 0.00 | 63 | 1013.1 |
| 20260504234304 | 61 | 300 | 0.0 | 2.0 | 0.00 | 0.00 | 0.00 | 63 | 1013.1 |
| 20260504234204 | 61 | 301 | 0.0 | 2.0 | 0.00 | 0.00 | 0.00 | 64 | 1013.1 |
| 20260504234104 | 61 | 309 | 0.0 | 2.0 | 0.00 | 0.00 | 0.00 | 64 | 1013.2 |
| 20260504234004 | 61 | 313 | 0.0 | 2.0 | 0.00 | 0.00 | 0.00 | 63 | 1013.1 |
| 20260504233803 | 61 | 302 | 0.0 | 2.0 | 0.00 | 0.00 | 0.00 | 63 | 1013.1 |
| 20260504233603 | 60 | 257 | 1.0 | 3.0 | 0.00 | 0.00 | 0.00 | 63 | 1013.1 |
| 20260504233505 | 60 | 250 | 1.0 | 3.0 | 0.00 | 0.00 | 0.00 | 63 | 1013.2 |
| 20260504233416 | 60 | 247 | 1.0 | 3.0 | 0.00 | 0.00 | 0.00 | 63 | 1013.2 |
| 20260504233303 | 60 | 243 | 1.0 | 3.0 | 0.00 | 0.00 | 0.00 | 63 | 1013.2 |
| 20260504233204 | 60 | 241 | 1.0 | 3.0 | 0.00 | 0.00 | 0.00 | 64 | 1013.2 |
| 20260504233103 | 60 | 233 | 1.0 | 3.0 | 0.00 | 0.00 | 0.00 | 63 | 1013.3 |
| 20260504233004 | 60 | 228 | 1.0 | 4.0 | 0.00 | 0.00 | 0.00 | 64 | 1013.3 |
| 20260504232903 | 60 | 227 | 1.0 | 4.0 | 0.00 | 0.00 | 0.00 | 64 | 1013.3 |
| 20260504232804 | 60 | 224 | 2.0 | 4.0 | 0.00 | 0.00 | 0.00 | 64 | 1013.3 |
| 20260504232603 | 60 | 221 | 2.0 | 5.0 | 0.00 | 0.00 | 0.00 | 65 | 1013.3 |
| 20260504232404 | 60 | 221 | 3.0 | 5.0 | 0.00 | 0.00 | 0.00 | 66 | 1013.5 |
| 20260504232304 | 60 | 221 | 3.0 | 5.0 | 0.00 | 0.00 | 0.00 | 66 | 1013.5 |
| 20260504232205 | 60 | 221 | 3.0 | 5.0 | 0.00 | 0.00 | 0.00 | 66 | 1013.5 |
| 20260504232104 | 60 | 221 | 3.0 | 5.0 | 0.00 | 0.00 | 0.00 | 66 | 1013.5 |
| 20260504232008 | 60 | 221 | 3.0 | 5.0 | 0.00 | 0.00 | 0.00 | 66 | 1013.5 |
| 20260504231904 | 60 | 222 | 4.0 | 5.0 | 0.00 | 0.00 | 0.00 | 66 | 1013.5 |
| 20260504231803 | 60 | 222 | 3.0 | 5.0 | 0.00 | 0.00 | 0.00 | 66 | 1013.5 |
| 20260504231703 | 60 | 222 | 3.0 | 5.0 | 0.00 | 0.00 | 0.00 | 65 | 1013.5 |
| 20260504231604 | 60 | 222 | 3.0 | 5.0 | 0.00 | 0.00 | 0.00 | 65 | 1013.6 |
| 20260504231503 | 60 | 222 | 3.0 | 5.0 | 0.00 | 0.00 | 0.00 | 65 | 1013.6 |
| 20260504231308 | 60 | 221 | 2.0 | 5.0 | 0.00 | 0.00 | 0.00 | 65 | 1013.6 |
| 20260504231203 | 60 | 220 | 2.0 | 5.0 | 0.00 | 0.00 | 0.00 | 65 | 1013.6 |
| 20260504231103 | 60 | 218 | 2.0 | 4.0 | 0.00 | 0.00 | 0.00 | 65 | 1013.7 |
| 20260504231004 | 60 | 217 | 2.0 | 4.0 | 0.00 | 0.00 | 0.00 | 65 | 1013.6 |
| 20260504230903 | 60 | 215 | 2.0 | 4.0 | 0.00 | 0.00 | 0.00 | 65 | 1013.6 |
| 20260504230805 | 60 | 214 | 2.0 | 4.0 | 0.00 | 0.00 | 0.00 | 65 | 1013.6 |
| 20260504230703 | 60 | 214 | 2.0 | 4.0 | 0.00 | 0.00 | 0.00 | 64 | 1013.7 |
| 20260504230608 | 60 | 214 | 2.0 | 4.0 | 0.00 | 0.00 | 0.00 | 64 | 1013.7 |
| 20260504230503 | 60 | 214 | 2.0 | 4.0 | 0.00 | 0.00 | 0.00 | 65 | 1013.7 |
| 20260504230403 | 60 | 215 | 3.0 | 4.0 | 0.00 | 0.00 | 0.00 | 64 | 1013.7 |
| 20260504230203 | 60 | 217 | 3.0 | 4.0 | 0.00 | 0.00 | 0.00 | 65 | 1013.7 |
| 20260504230104 | 60 | 218 | 3.0 | 4.0 | 0.00 | 0.00 | 0.00 | 65 | 1013.7 |
| 20260504225909 | 60 | 221 | 2.0 | 4.0 | 0.00 | 0.00 | 0.00 | 65 | 1013.7 |
| 20260504225804 | 60 | 222 | 2.0 | 4.0 | 0.00 | 0.00 | 0.00 | 66 | 1013.8 |
| 20260504225703 | 60 | 222 | 2.0 | 3.0 | 0.00 | 0.00 | 0.00 | 66 | 1013.6 |
| 20260504225604 | 60 | 223 | 2.0 | 3.0 | 0.00 | 0.00 | 0.00 | 65 | 1013.6 |
| 20260504225403 | 60 | 227 | 2.0 | 3.0 | 0.00 | 0.00 | 0.00 | 65 | 1013.6 |
| 20260504225304 | 60 | 230 | 2.0 | 3.0 | 0.00 | 0.00 | 0.00 | 65 | 1013.7 |
| 20260504225103 | 60 | 236 | 1.0 | 3.0 | 0.00 | 0.00 | 0.00 | 65 | 1013.6 |
| 20260504225004 | 60 | 240 | 1.0 | 3.0 | 0.00 | 0.00 | 0.00 | 65 | 1013.6 |
| 20260504224904 | 60 | 243 | 1.0 | 3.0 | 0.00 | 0.00 | 0.00 | 64 | 1013.6 |
| 20260504224603 | 61 | 272 | 1.0 | 2.0 | 0.00 | 0.00 | 0.00 | 64 | 1013.6 |
| 20260504224506 | 61 | 279 | 1.0 | 2.0 | 0.00 | 0.00 | 0.00 | 64 | 1013.7 |
| 20260504224404 | 61 | 292 | 0.0 | 2.0 | 0.00 | 0.00 | 0.00 | 64 | 1013.6 |
| 20260504224304 | 61 | 301 | 0.0 | 2.0 | 0.00 | 0.00 | 0.00 | 64 | 1013.7 |
| 20260504224203 | 61 | 307 | 0.0 | 1.0 | 0.00 | 0.00 | 0.00 | 64 | 1013.7 |
| 20260504224103 | 61 | 307 | 0.0 | 1.0 | 0.00 | 0.00 | 0.00 | 64 | 1013.6 |
| 20260504224003 | 61 | 307 | 0.0 | 1.0 | 0.00 | 0.00 | 0.00 | 64 | 1013.6 |
| 20260504223904 | 61 | 307 | 0.0 | 1.0 | 0.00 | 0.00 | 0.00 | 64 | 1013.6 |
| 20260504223806 | 61 | 307 | 0.0 | 1.0 | 0.00 | 0.00 | 0.00 | 64 | 1013.7 |
| 20260504223704 | 61 | 307 | 0.0 | 1.0 | 0.00 | 0.00 | 0.00 | 64 | 1013.7 |
| 20260504223604 | 61 | 307 | 0.0 | 1.0 | 0.00 | 0.00 | 0.00 | 63 | 1013.8 |
| 20260504223503 | 61 | 307 | 0.0 | 1.0 | 0.00 | 0.00 | 0.00 | 63 | 1013.8 |
| 20260504223404 | 62 | 307 | 0.0 | 1.0 | 0.00 | 0.00 | 0.00 | 63 | 1013.9 |
| 20260504223304 | 62 | 307 | 0.0 | 1.0 | 0.00 | 0.00 | 0.00 | 63 | 1013.8 |
| 20260504223203 | 62 | 307 | 0.0 | 1.0 | 0.00 | 0.00 | 0.00 | 63 | 1013.9 |
| 20260504223106 | 62 | 307 | 0.0 | 2.0 | 0.00 | 0.00 | 0.00 | 63 | 1013.7 |
| 20260504223004 | 62 | 307 | 0.0 | 2.0 | 0.00 | 0.00 | 0.00 | 63 | 1013.8 |
| 20260504222904 | 62 | 307 | 1.0 | 2.0 | 0.00 | 0.00 | 0.00 | 63 | 1013.9 |
| 20260504222804 | 62 | 307 | 1.0 | 2.0 | 0.00 | 0.00 | 0.00 | 63 | 1013.9 |
| 20260504222604 | 61 | 307 | 1.0 | 2.0 | 0.00 | 0.00 | 0.00 | 64 | 1013.9 |
| 20260504222504 | 61 | 307 | 1.0 | 2.0 | 0.00 | 0.00 | 0.00 | 64 | 1013.8 |
| 20260504222406 | 61 | 307 | 1.0 | 2.0 | 0.00 | 0.00 | 0.00 | 63 | 1013.9 |
| 20260504222305 | 61 | 307 | 1.0 | 2.0 | 0.00 | 0.00 | 0.00 | 64 | 1014.0 |
| 20260504222204 | 61 | 307 | 0.0 | 2.0 | 0.00 | 0.00 | 0.00 | 63 | 1014.0 |
| 20260504222004 | 62 | 307 | 0.0 | 2.0 | 0.00 | 0.00 | 0.00 | 63 | 1014.0 |
| 20260504221903 | 62 | 307 | 0.0 | 2.0 | 0.00 | 0.00 | 0.00 | 63 | 1013.9 |
| 20260504221804 | 62 | 307 | 0.0 | 2.0 | 0.00 | 0.00 | 0.00 | 63 | 1013.9 |
| 20260504221403 | 61 | 307 | 0.0 | 2.0 | 0.00 | 0.00 | 0.00 | 63 | 1014.0 |
| 20260504221303 | 61 | 307 | 0.0 | 2.0 | 0.00 | 0.00 | 0.00 | 63 | 1014.0 |
| 20260504221204 | 61 | 307 | 0.0 | 2.0 | 0.00 | 0.00 | 0.00 | 63 | 1014.0 |
| 20260504221103 | 61 | 306 | 0.0 | 2.0 | 0.00 | 0.00 | 0.00 | 63 | 1014.0 |
| 20260504221007 | 61 | 304 | 0.0 | 2.0 | 0.00 | 0.00 | 0.00 | 63 | 1014.0 |
| 20260504220904 | 61 | 300 | 1.0 | 3.0 | 0.00 | 0.00 | 0.00 | 63 | 1014.0 |
| 20260504220803 | 61 | 296 | 1.0 | 3.0 | 0.00 | 0.00 | 0.00 | 63 | 1014.0 |
| 20260504220703 | 61 | 295 | 1.0 | 3.0 | 0.00 | 0.00 | 0.00 | 63 | 1014.0 |
| 20260504220604 | 61 | 299 | 1.0 | 3.0 | 0.00 | 0.00 | 0.00 | 63 | 1014.1 |
| 20260504220504 | 61 | 294 | 1.0 | 3.0 | 0.00 | 0.00 | 0.00 | 63 | 1014.0 |
| 20260504220403 | 61 | 293 | 1.0 | 3.0 | 0.00 | 0.00 | 0.00 | 63 | 1014.0 |
| 20260504220204 | 61 | 281 | 1.0 | 3.0 | 0.00 | 0.00 | 0.00 | 63 | 1014.1 |
| 20260504220012 | 62 | 274 | 1.0 | 3.0 | 0.00 | 0.00 | 0.00 | 63 | 1014.2 |
| 20260504215903 | 62 | 270 | 1.0 | 3.0 | 0.00 | 0.00 | 0.00 | 63 | 1014.0 |
| 20260504215803 | 62 | 267 | 1.0 | 3.0 | 0.00 | 0.00 | 0.00 | 63 | 1014.1 |
| 20260504215704 | 62 | 259 | 1.0 | 3.0 | 0.00 | 0.00 | 0.00 | 63 | 1014.1 |
| 20260504215604 | 62 | 244 | 1.0 | 3.0 | 0.00 | 0.00 | 0.00 | 62 | 1014.2 |
| 20260504215503 | 62 | 235 | 0.0 | 3.0 | 0.00 | 0.00 | 0.00 | 62 | 1014.2 |
| 20260504215403 | 62 | 231 | 0.0 | 3.0 | 0.00 | 0.00 | 0.00 | 62 | 1014.2 |
| 20260504215309 | 62 | 228 | 0.0 | 3.0 | 0.00 | 0.00 | 0.00 | 62 | 1014.1 |
| 20260504215203 | 62 | 231 | 0.0 | 3.0 | 0.00 | 0.00 | 0.00 | 62 | 1014.2 |
| 20260504215004 | 62 | 236 | 1.0 | 4.0 | 0.00 | 0.00 | 0.00 | 62 | 1014.1 |
| 20260504214903 | 62 | 233 | 1.0 | 4.0 | 0.00 | 0.00 | 0.00 | 62 | 1014.2 |
| 20260504214803 | 62 | 232 | 1.0 | 4.0 | 0.00 | 0.00 | 0.00 | 63 | 1014.1 |
| 20260504214608 | 62 | 229 | 1.0 | 4.0 | 0.00 | 0.00 | 0.00 | 62 | 1014.2 |
| 20260504214504 | 62 | 226 | 2.0 | 4.0 | 0.00 | 0.00 | 0.00 | 62 | 1014.1 |
| 20260504214403 | 62 | 222 | 2.0 | 5.0 | 0.00 | 0.00 | 0.00 | 62 | 1014.1 |
| 20260504214304 | 62 | 218 | 2.0 | 5.0 | 0.00 | 0.00 | 0.00 | 62 | 1014.1 |
| 20260504214203 | 62 | 215 | 3.0 | 5.0 | 0.00 | 0.00 | 0.00 | 62 | 1014.2 |
| 20260504214104 | 62 | 212 | 3.0 | 6.0 | 0.00 | 0.00 | 0.00 | 61 | 1014.1 |
| 20260504214004 | 62 | 208 | 3.0 | 6.0 | 0.00 | 0.00 | 0.00 | 61 | 1014.2 |
| 20260504213908 | 62 | 206 | 3.0 | 7.0 | 0.00 | 0.00 | 0.00 | 61 | 1014.1 |
| 20260504213803 | 62 | 204 | 4.0 | 7.0 | 0.00 | 0.00 | 0.00 | 61 | 1014.2 |
| 20260504213604 | 62 | 203 | 4.0 | 7.0 | 0.00 | 0.00 | 0.00 | 61 | 1014.2 |
| 20260504213303 | 62 | 201 | 5.0 | 8.0 | 0.00 | 0.00 | 0.00 | 62 | 1014.2 |
| 20260504213103 | 61 | 201 | 5.0 | 8.0 | 0.00 | 0.00 | 0.00 | 63 | 1014.3 |
| 20260504212904 | 61 | 204 | 4.0 | 8.0 | 0.00 | 0.00 | 0.00 | 63 | 1014.3 |
| 20260504212804 | 61 | 207 | 4.0 | 8.0 | 0.00 | 0.00 | 0.00 | 63 | 1014.2 |
| 20260504212604 | 61 | 211 | 3.0 | 8.0 | 0.00 | 0.00 | 0.00 | 63 | 1014.3 |
| 20260504212509 | 62 | 215 | 3.0 | 7.0 | 0.00 | 0.00 | 0.00 | 63 | 1014.4 |
| 20260504212404 | 62 | 220 | 2.0 | 6.0 | 0.00 | 0.00 | 0.00 | 63 | 1014.4 |
| 20260504212304 | 62 | 228 | 2.0 | 5.0 | 0.00 | 0.00 | 0.00 | 63 | 1014.4 |
| 20260504212104 | 62 | 239 | 1.0 | 4.0 | 0.00 | 0.00 | 0.00 | 63 | 1014.4 |
| 20260504211904 | 62 | 240 | 1.0 | 4.0 | 0.00 | 0.00 | 0.00 | 62 | 1014.4 |
| 20260504211704 | 62 | 247 | 1.0 | 3.0 | 0.00 | 0.00 | 0.00 | 62 | 1014.3 |
| 20260504211604 | 62 | 251 | 1.0 | 3.0 | 0.00 | 0.00 | 0.00 | 62 | 1014.4 |
| 20260504211504 | 62 | 253 | 1.0 | 3.0 | 0.00 | 0.00 | 0.00 | 62 | 1014.3 |
| 20260504211403 | 62 | 254 | 1.0 | 3.0 | 0.00 | 0.00 | 0.00 | 62 | 1014.4 |
| 20260504211204 | 62 | 257 | 1.0 | 3.0 | 0.00 | 0.00 | 0.00 | 61 | 1014.4 |
| 20260504211108 | 62 | 261 | 1.0 | 3.0 | 0.00 | 0.00 | 0.00 | 62 | 1014.3 |
| 20260504211004 | 62 | 267 | 1.0 | 3.0 | 0.00 | 0.00 | 0.00 | 62 | 1014.3 |
| 20260504210904 | 62 | 273 | 0.0 | 3.0 | 0.00 | 0.00 | 0.00 | 62 | 1014.3 |
| 20260504210804 | 62 | 283 | 0.0 | 2.0 | 0.00 | 0.00 | 0.00 | 62 | 1014.3 |
| 20260504210604 | 62 | 283 | 0.0 | 1.0 | 0.00 | 0.00 | 0.00 | 62 | 1014.3 |
| 20260504210503 | 62 | 284 | 0.0 | 3.0 | 0.00 | 0.00 | 0.00 | 62 | 1014.2 |
| 20260504210409 | 62 | 286 | 0.0 | 3.0 | 0.00 | 0.00 | 0.00 | 62 | 1014.3 |
| 20260504210304 | 63 | 283 | 0.0 | 3.0 | 0.00 | 0.00 | 0.00 | 62 | 1014.2 |
| 20260504210203 | 63 | 275 | 1.0 | 3.0 | 0.00 | 0.00 | 0.00 | 62 | 1014.3 |
| 20260504210004 | 62 | 278 | 1.0 | 3.0 | 0.00 | 0.00 | 0.00 | 61 | 1014.3 |
| 20260504205708 | 62 | 284 | 1.0 | 4.0 | 0.00 | 0.00 | 0.00 | 62 | 1014.4 |
| 20260504205504 | 62 | 288 | 1.0 | 4.0 | 0.00 | 0.00 | 0.00 | 62 | 1014.3 |
| 20260504205404 | 63 | 291 | 2.0 | 4.0 | 0.00 | 0.00 | 0.00 | 62 | 1014.4 |
| 20260504205304 | 63 | 295 | 2.0 | 4.0 | 0.00 | 0.00 | 0.00 | 62 | 1014.4 |
| 20260504205203 | 63 | 301 | 2.0 | 4.0 | 0.00 | 0.00 | 0.00 | 62 | 1014.4 |
| 20260504205103 | 63 | 303 | 2.0 | 4.0 | 0.00 | 0.00 | 0.00 | 62 | 1014.3 |
| 20260504204803 | 63 | 308 | 1.0 | 3.0 | 0.00 | 0.00 | 0.00 | 61 | 1014.4 |
| 20260504204704 | 63 | 312 | 1.0 | 3.0 | 0.00 | 0.00 | 0.00 | 61 | 1014.4 |
| 20260504204604 | 63 | 313 | 1.0 | 3.0 | 0.00 | 0.00 | 0.00 | 61 | 1014.4 |
| 20260504204504 | 63 | 314 | 1.0 | 3.0 | 0.00 | 0.00 | 0.00 | 61 | 1014.3 |
| 20260504204308 | 63 | 312 | 1.0 | 3.0 | 0.00 | 0.00 | 0.00 | 61 | 1014.3 |
| 20260504204203 | 63 | 313 | 1.0 | 3.0 | 0.00 | 0.00 | 0.00 | 61 | 1014.3 |
| 20260504204103 | 63 | 313 | 1.0 | 3.0 | 0.00 | 0.00 | 0.00 | 61 | 1014.4 |
| 20260504203904 | 63 | 311 | 1.0 | 3.0 | 0.00 | 0.00 | 0.00 | 61 | 1014.4 |
| 20260504203803 | 63 | 312 | 1.0 | 3.0 | 0.00 | 0.00 | 0.00 | 61 | 1014.4 |
| 20260504203705 | 63 | 313 | 1.0 | 3.0 | 0.00 | 0.00 | 0.00 | 60 | 1014.3 |
| 20260504203504 | 63 | 317 | 1.0 | 3.0 | 0.00 | 0.00 | 0.00 | 61 | 1014.4 |
| 20260504203303 | 63 | 324 | 1.0 | 3.0 | 0.00 | 0.00 | 0.00 | 61 | 1014.3 |
| 20260504203203 | 63 | 329 | 1.0 | 3.0 | 0.00 | 0.00 | 0.00 | 61 | 1014.3 |
| 20260504203103 | 63 | 334 | 1.0 | 3.0 | 0.00 | 0.00 | 0.00 | 61 | 1014.3 |
| 20260504203004 | 63 | 340 | 1.0 | 3.0 | 0.00 | 0.00 | 0.00 | 60 | 1014.3 |
| 20260504202908 | 63 | 345 | 1.0 | 3.0 | 0.00 | 0.00 | 0.00 | 61 | 1014.3 |
| 20260504202803 | 63 | 344 | 1.0 | 3.0 | 0.00 | 0.00 | 0.00 | 61 | 1014.4 |
| 20260504202703 | 63 | 343 | 2.0 | 3.0 | 0.00 | 0.00 | 0.00 | 61 | 1014.4 |
| 20260504202503 | 63 | 342 | 2.0 | 4.0 | 0.00 | 0.00 | 0.00 | 61 | 1014.4 |
| 20260504202403 | 63 | 340 | 2.0 | 4.0 | 0.00 | 0.00 | 0.00 | 61 | 1014.4 |
| 20260504202305 | 63 | 337 | 2.0 | 4.0 | 0.00 | 0.00 | 0.00 | 61 | 1014.4 |
| 20260504202208 | 63 | 333 | 2.0 | 4.0 | 0.00 | 0.00 | 0.00 | 61 | 1014.3 |
| 20260504202004 | 62 | 331 | 2.0 | 4.0 | 0.00 | 0.00 | 0.00 | 61 | 1014.3 |
| 20260504201804 | 63 | 329 | 2.0 | 4.0 | 0.00 | 0.00 | 0.00 | 61 | 1014.4 |
| 20260504201704 | 63 | 329 | 2.0 | 4.0 | 0.00 | 0.00 | 0.00 | 61 | 1014.4 |
| 20260504201603 | 63 | 326 | 2.0 | 4.0 | 0.00 | 0.00 | 0.00 | 61 | 1014.4 |
| 20260504201508 | 63 | 326 | 2.0 | 3.0 | 0.00 | 0.00 | 0.00 | 60 | 1014.3 |
| 20260504201404 | 63 | 327 | 2.0 | 3.0 | 0.00 | 0.00 | 0.00 | 61 | 1014.4 |
| 20260504201303 | 63 | 331 | 2.0 | 3.0 | 0.00 | 0.00 | 0.00 | 60 | 1014.4 |
| 20260504201203 | 63 | 334 | 2.0 | 3.0 | 0.00 | 0.00 | 0.00 | 60 | 1014.4 |
| 20260504201105 | 63 | 334 | 2.0 | 3.0 | 0.00 | 0.00 | 0.00 | 61 | 1014.3 |
| 20260504201004 | 63 | 334 | 2.0 | 3.0 | 0.00 | 0.00 | 0.00 | 61 | 1014.3 |
| 20260504200904 | 63 | 332 | 2.0 | 3.0 | 0.00 | 0.00 | 0.00 | 61 | 1014.3 |
| 20260504200808 | 63 | 332 | 2.0 | 4.0 | 0.00 | 0.00 | 0.00 | 61 | 1014.4 |
| 20260504200704 | 63 | 333 | 2.0 | 4.0 | 0.00 | 0.00 | 0.00 | 60 | 1014.3 |
| 20260504200604 | 63 | 334 | 2.0 | 4.0 | 0.00 | 0.00 | 0.00 | 60 | 1014.4 |
| 20260504200504 | 63 | 332 | 2.0 | 4.0 | 0.00 | 0.00 | 0.00 | 60 | 1014.3 |
| 20260504200405 | 63 | 331 | 2.0 | 4.0 | 0.00 | 0.00 | 0.00 | 60 | 1014.3 |
| 20260504200304 | 63 | 331 | 2.0 | 4.0 | 0.00 | 0.00 | 0.00 | 60 | 1014.3 |
| 20260504200203 | 63 | 332 | 2.0 | 4.0 | 0.00 | 0.00 | 0.00 | 60 | 1014.4 |
| 20260504200107 | 63 | 332 | 2.0 | 4.0 | 0.00 | 0.00 | 0.00 | 60 | 1014.4 |
| 20260504200005 | 63 | 332 | 2.0 | 4.0 | 0.00 | 0.00 | 0.00 | 60 | 1014.4 |
| 20260504195903 | 63 | 336 | 1.0 | 4.0 | 0.00 | 0.00 | 0.00 | 60 | 1014.4 |
| 20260504195803 | 63 | 339 | 1.0 | 3.0 | 0.00 | 0.00 | 0.00 | 60 | 1014.3 |
| 20260504195703 | 63 | 339 | 1.0 | 3.0 | 0.00 | 0.00 | 0.00 | 60 | 1014.2 |
| 20260504195504 | 63 | 346 | 1.0 | 3.0 | 0.00 | 0.00 | 0.00 | 60 | 1014.3 |
| 20260504195408 | 63 | 350 | 1.0 | 3.0 | 0.00 | 0.00 | 0.00 | 60 | 1014.3 |
| 20260504195304 | 63 | 344 | 1.0 | 3.0 | 0.00 | 0.00 | 0.00 | 61 | 1014.3 |
| 20260504195204 | 63 | 340 | 1.0 | 3.0 | 0.00 | 0.00 | 0.00 | 61 | 1014.3 |
| 20260504195104 | 63 | 337 | 1.0 | 3.0 | 0.00 | 0.00 | 0.00 | 61 | 1014.3 |
| 20260504194903 | 63 | 329 | 2.0 | 4.0 | 0.00 | 0.00 | 0.00 | 60 | 1014.3 |
| 20260504194804 | 63 | 328 | 2.0 | 4.0 | 0.00 | 0.00 | 0.00 | 61 | 1014.2 |
| 20260504194708 | 63 | 327 | 2.0 | 4.0 | 0.00 | 0.00 | 0.00 | 60 | 1014.3 |
| 20260504194504 | 63 | 329 | 2.0 | 4.0 | 0.00 | 0.00 | 0.00 | 60 | 1014.1 |
| 20260504194405 | 63 | 328 | 2.0 | 4.0 | 0.00 | 0.00 | 0.00 | 60 | 1014.2 |
| 20260504194305 | 63 | 330 | 2.0 | 4.0 | 0.00 | 0.00 | 0.00 | 60 | 1014.3 |
| 20260504194103 | 63 | 333 | 2.0 | 4.0 | 0.00 | 0.00 | 0.00 | 61 | 1014.2 |
| 20260504193903 | 63 | 338 | 2.0 | 4.0 | 0.00 | 0.00 | 0.00 | 62 | 1014.2 |
| 20260504193803 | 63 | 340 | 1.0 | 3.0 | 0.00 | 0.00 | 0.00 | 61 | 1014.1 |
| 20260504193705 | 63 | 342 | 1.0 | 3.0 | 0.00 | 0.00 | 0.00 | 61 | 1014.1 |
| 20260504193603 | 63 | 340 | 1.0 | 3.0 | 0.00 | 0.00 | 0.00 | 61 | 1014.1 |
| 20260504193504 | 63 | 337 | 1.0 | 2.0 | 0.00 | 0.00 | 0.00 | 61 | 1014.2 |
| 20260504193404 | 63 | 334 | 1.0 | 2.0 | 0.00 | 0.00 | 0.00 | 61 | 1014.1 |
| 20260504193103 | 63 | 329 | 2.0 | 4.0 | 0.00 | 0.00 | 0.00 | 61 | 1014.2 |
| 20260504193004 | 63 | 326 | 2.0 | 4.0 | 0.00 | 0.00 | 0.00 | 61 | 1014.2 |
| 20260504192903 | 63 | 326 | 2.0 | 4.0 | 0.00 | 0.00 | 0.00 | 61 | 1014.1 |
| 20260504192704 | 63 | 324 | 2.0 | 4.0 | 0.00 | 0.00 | 0.00 | 61 | 1014.1 |
| 20260504192607 | 63 | 323 | 2.0 | 4.0 | 0.00 | 0.00 | 0.00 | 61 | 1014.1 |
| 20260504192506 | 63 | 322 | 2.0 | 4.0 | 0.00 | 0.00 | 0.00 | 61 | 1014.1 |
| 20260504192404 | 63 | 321 | 2.0 | 4.0 | 0.00 | 0.00 | 0.00 | 60 | 1014.1 |
| 20260504192304 | 63 | 320 | 2.0 | 4.0 | 0.00 | 0.00 | 0.00 | 60 | 1014.1 |
| 20260504192204 | 63 | 317 | 2.0 | 4.0 | 0.00 | 0.00 | 0.00 | 60 | 1014.1 |
| 20260504192103 | 63 | 315 | 2.0 | 4.0 | 0.00 | 0.00 | 0.00 | 60 | 1014.2 |
| 20260504192004 | 63 | 313 | 2.0 | 4.0 | 0.00 | 0.00 | 0.00 | 61 | 1014.1 |
| 20260504191907 | 63 | 311 | 2.0 | 4.0 | 0.00 | 0.00 | 0.00 | 61 | 1014.1 |
| 20260504191804 | 64 | 308 | 1.0 | 4.0 | 0.00 | 0.00 | 0.00 | 60 | 1014.1 |
| 20260504191704 | 64 | 307 | 1.0 | 3.0 | 0.00 | 0.00 | 0.00 | 60 | 1014.0 |
| 20260504191504 | 64 | 306 | 1.0 | 3.0 | 0.00 | 0.00 | 0.00 | 61 | 1014.1 |
| 20260504191404 | 64 | 307 | 1.0 | 3.0 | 0.00 | 0.00 | 0.00 | 61 | 1014.0 |
| 20260504191303 | 64 | 308 | 1.0 | 3.0 | 0.00 | 0.00 | 0.00 | 61 | 1014.0 |
| 20260504191104 | 64 | 308 | 2.0 | 3.0 | 0.00 | 0.00 | 0.00 | 61 | 1013.9 |
| 20260504191004 | 64 | 309 | 2.0 | 3.0 | 0.00 | 0.00 | 0.00 | 61 | 1013.9 |
| 20260504190904 | 64 | 309 | 2.0 | 3.0 | 0.00 | 0.00 | 0.00 | 61 | 1013.9 |
| 20260504190804 | 64 | 309 | 2.0 | 3.0 | 0.00 | 0.00 | 0.00 | 61 | 1013.9 |
| 20260504190704 | 64 | 309 | 2.0 | 3.0 | 0.00 | 0.00 | 0.00 | 61 | 1013.9 |
| 20260504190605 | 64 | 309 | 1.0 | 3.0 | 0.00 | 0.00 | 0.00 | 60 | 1013.9 |
| 20260504190507 | 64 | 311 | 1.0 | 3.0 | 0.00 | 0.00 | 0.00 | 60 | 1013.9 |
| 20260504190403 | 64 | 307 | 1.0 | 3.0 | 0.00 | 0.00 | 0.00 | 60 | 1014.0 |
| 20260504190204 | 64 | 303 | 1.0 | 3.0 | 0.00 | 0.00 | 0.00 | 61 | 1013.9 |
| 20260504190005 | 64 | 293 | 0.0 | 2.0 | 0.00 | 0.00 | 0.00 | 61 | 1013.9 |
| 20260504185806 | 64 | 273 | 1.0 | 2.0 | 0.00 | 0.00 | 0.00 | 61 | 1013.8 |
| 20260504185703 | 64 | 270 | 1.0 | 2.0 | 0.00 | 0.00 | 0.00 | 61 | 1013.9 |
| 20260504185603 | 64 | 268 | 1.0 | 2.0 | 0.00 | 0.00 | 0.00 | 61 | 1013.9 |
| 20260504185504 | 64 | 261 | 1.0 | 2.0 | 0.00 | 0.00 | 0.00 | 61 | 1013.9 |
| 20260504185403 | 64 | 259 | 1.0 | 2.0 | 0.00 | 0.00 | 0.00 | 61 | 1013.8 |
| 20260504185304 | 64 | 259 | 1.0 | 2.0 | 0.00 | 0.00 | 0.00 | 61 | 1014.0 |
| 20260504185204 | 64 | 258 | 1.0 | 2.0 | 0.00 | 0.00 | 0.00 | 61 | 1013.9 |
| 20260504185004 | 64 | 250 | 1.0 | 4.0 | 0.00 | 0.00 | 0.00 | 61 | 1013.9 |
| 20260504184904 | 64 | 249 | 1.0 | 4.0 | 0.00 | 0.00 | 0.00 | 61 | 1013.9 |
| 20260504184804 | 64 | 247 | 1.0 | 4.0 | 0.00 | 0.00 | 0.00 | 61 | 1013.9 |
| 20260504184704 | 64 | 245 | 2.0 | 4.0 | 0.00 | 0.00 | 0.00 | 61 | 1013.8 |
| 20260504184605 | 64 | 242 | 2.0 | 4.0 | 0.00 | 0.00 | 0.00 | 61 | 1013.8 |
| 20260504184504 | 64 | 238 | 2.0 | 4.0 | 0.00 | 0.00 | 0.00 | 61 | 1013.8 |
| 20260504184407 | 64 | 238 | 2.0 | 4.0 | 0.00 | 0.00 | 0.00 | 61 | 1013.8 |
| 20260504184304 | 64 | 237 | 2.0 | 4.0 | 0.00 | 0.00 | 0.00 | 61 | 1013.9 |
| 20260504184203 | 64 | 236 | 2.0 | 4.0 | 0.00 | 0.00 | 0.00 | 61 | 1013.8 |
| 20260504184104 | 64 | 232 | 2.0 | 4.0 | 0.00 | 0.00 | 0.00 | 61 | 1013.9 |
| 20260504184004 | 64 | 228 | 2.0 | 4.0 | 0.00 | 0.00 | 0.00 | 60 | 1013.8 |
| 20260504183903 | 65 | 224 | 2.0 | 5.0 | 0.00 | 0.00 | 0.00 | 60 | 1013.8 |
| 20260504183804 | 65 | 219 | 2.0 | 5.0 | 0.00 | 0.00 | 0.00 | 61 | 1013.7 |
| 20260504183605 | 65 | 216 | 2.0 | 5.0 | 0.00 | 0.00 | 0.00 | 60 | 1013.7 |
| 20260504183503 | 65 | 215 | 2.0 | 5.0 | 0.00 | 0.00 | 0.00 | 60 | 1013.8 |
| 20260504183403 | 65 | 214 | 2.0 | 5.0 | 0.00 | 0.00 | 0.00 | 60 | 1013.7 |
| 20260504183303 | 65 | 214 | 2.0 | 5.0 | 0.00 | 0.00 | 0.00 | 60 | 1013.8 |
| 20260504183204 | 65 | 215 | 3.0 | 5.0 | 0.00 | 0.00 | 0.00 | 60 | 1013.8 |
| 20260504183103 | 65 | 215 | 2.0 | 5.0 | 0.00 | 0.00 | 0.00 | 59 | 1013.7 |
| 20260504183009 | 65 | 216 | 2.0 | 5.0 | 0.00 | 0.00 | 0.00 | 59 | 1013.7 |
| 20260504182904 | 65 | 218 | 2.0 | 4.0 | 0.00 | 0.00 | 0.00 | 59 | 1013.7 |
| 20260504182803 | 65 | 222 | 2.0 | 4.0 | 0.00 | 0.00 | 0.00 | 59 | 1013.8 |
| 20260504182703 | 65 | 226 | 1.0 | 4.0 | 0.00 | 0.00 | 0.00 | 59 | 1013.7 |
| 20260504182604 | 65 | 229 | 1.0 | 4.0 | 0.00 | 0.00 | 0.00 | 59 | 1013.8 |
| 20260504182504 | 65 | 233 | 1.0 | 4.0 | 0.00 | 0.00 | 0.00 | 59 | 1013.7 |
| 20260504182406 | 65 | 240 | 1.0 | 4.0 | 0.00 | 0.00 | 0.00 | 59 | 1013.7 |
| 20260504182310 | 65 | 250 | 1.0 | 4.0 | 0.00 | 0.00 | 0.00 | 59 | 1013.6 |
| 20260504182207 | 65 | 264 | 1.0 | 3.0 | 0.00 | 0.00 | 0.00 | 59 | 1013.5 |
| 20260504182107 | 65 | 270 | 1.0 | 3.0 | 0.00 | 0.00 | 0.00 | 59 | 1013.6 |
| 20260504182006 | 65 | 272 | 1.0 | 3.0 | 0.00 | 0.00 | 0.00 | 59 | 1013.6 |
| 20260504181907 | 65 | 280 | 1.0 | 3.0 | 0.00 | 0.00 | 0.00 | 58 | 1013.5 |
| 20260504181807 | 65 | 293 | 1.0 | 3.0 | 0.00 | 0.00 | 0.00 | 57 | 1013.6 |
| 20260504181706 | 66 | 304 | 1.0 | 3.0 | 0.00 | 0.00 | 0.00 | 58 | 1013.6 |
| 20260504181609 | 66 | 317 | 1.0 | 3.0 | 0.00 | 0.00 | 0.00 | 58 | 1013.6 |
| 20260504181507 | 66 | 325 | 1.0 | 3.0 | 0.00 | 0.00 | 0.00 | 57 | 1013.6 |
| 20260504181407 | 66 | 335 | 1.0 | 3.0 | 0.00 | 0.00 | 0.00 | 56 | 1013.5 |
| 20260504181306 | 66 | 344 | 1.0 | 3.0 | 0.00 | 0.00 | 0.00 | 55 | 1013.5 |
| 20260504181207 | 66 | 348 | 1.0 | 3.0 | 0.00 | 0.00 | 0.00 | 55 | 1013.5 |
| 20260504181106 | 66 | 350 | 1.0 | 3.0 | 0.00 | 0.00 | 0.00 | 55 | 1013.5 |
| 20260504180909 | 66 | 349 | 1.0 | 3.0 | 0.00 | 0.00 | 0.00 | 55 | 1013.5 |
| 20260504180706 | 66 | 350 | 1.0 | 3.0 | 0.00 | 0.00 | 0.00 | 55 | 1013.4 |
| 20260504180606 | 66 | 347 | 1.0 | 3.0 | 0.00 | 0.00 | 0.00 | 55 | 1013.4 |
| 20260504180506 | 66 | 345 | 1.0 | 3.0 | 0.00 | 0.00 | 0.00 | 54 | 1013.4 |
| 20260504180407 | 66 | 345 | 1.0 | 3.0 | 0.00 | 0.00 | 0.00 | 54 | 1013.5 |
| 20260504180307 | 66 | 345 | 1.0 | 3.0 | 0.00 | 0.00 | 0.00 | 54 | 1013.5 |
| 20260504180210 | 66 | 344 | 1.0 | 3.0 | 0.00 | 0.00 | 0.00 | 55 | 1013.5 |
| 20260504180007 | 66 | 344 | 1.0 | 2.0 | 0.00 | 0.00 | 0.00 | 55 | 1013.4 |
| 20260504175907 | 66 | 345 | 1.0 | 2.0 | 0.00 | 0.00 | 0.00 | 55 | 1013.5 |
| 20260504175606 | 66 | 345 | 1.0 | 3.0 | 0.00 | 0.00 | 0.00 | 56 | 1013.5 |
| 20260504175511 | 66 | 345 | 1.0 | 3.0 | 0.00 | 0.00 | 0.00 | 56 | 1013.5 |
| 20260504175407 | 66 | 344 | 1.0 | 3.0 | 0.00 | 0.00 | 0.00 | 56 | 1013.5 |
| 20260504175307 | 66 | 345 | 1.0 | 3.0 | 0.00 | 0.00 | 0.00 | 56 | 1013.5 |
| 20260504175106 | 66 | 347 | 2.0 | 4.0 | 0.00 | 0.00 | 0.00 | 55 | 1013.5 |
| 20260504175007 | 66 | 348 | 2.0 | 4.0 | 0.00 | 0.00 | 0.00 | 55 | 1013.5 |
| 20260504174906 | 66 | 347 | 2.0 | 4.0 | 0.00 | 0.00 | 0.00 | 54 | 1013.5 |
| 20260504174809 | 66 | 345 | 2.0 | 4.0 | 0.00 | 0.00 | 0.00 | 53 | 1013.5 |
| 20260504174507 | 66 | 339 | 2.0 | 4.0 | 0.00 | 0.00 | 0.00 | 54 | 1013.6 |
| 20260504174407 | 66 | 338 | 2.0 | 4.0 | 0.00 | 0.00 | 0.00 | 54 | 1013.5 |
| 20260504174308 | 66 | 336 | 2.0 | 4.0 | 0.00 | 0.00 | 0.00 | 54 | 1013.4 |
| 20260504174109 | 66 | 329 | 2.0 | 4.0 | 0.00 | 0.00 | 0.00 | 55 | 1013.4 |
| 20260504174007 | 66 | 327 | 2.0 | 4.0 | 0.00 | 0.00 | 0.00 | 54 | 1013.4 |
| 20260504173907 | 66 | 327 | 2.0 | 4.0 | 0.00 | 0.00 | 0.00 | 55 | 1013.4 |
| 20260504173806 | 66 | 327 | 2.0 | 4.0 | 0.00 | 0.00 | 0.00 | 55 | 1013.5 |
| 20260504173706 | 66 | 329 | 2.0 | 4.0 | 0.00 | 0.00 | 0.00 | 55 | 1013.4 |
| 20260504173607 | 66 | 327 | 2.0 | 4.0 | 0.00 | 0.00 | 0.00 | 56 | 1013.5 |
| 20260504173506 | 66 | 325 | 2.0 | 4.0 | 0.00 | 0.00 | 0.00 | 55 | 1013.5 |
| 20260504173206 | 66 | 329 | 2.0 | 4.0 | 0.00 | 0.00 | 0.00 | 54 | 1013.6 |
| 20260504173106 | 66 | 333 | 2.0 | 4.0 | 0.00 | 0.00 | 0.00 | 53 | 1013.5 |
| 20260504173006 | 66 | 338 | 2.0 | 4.0 | 0.00 | 0.00 | 0.00 | 53 | 1013.6 |
| 20260504172806 | 67 | 343 | 2.0 | 3.0 | 0.00 | 0.00 | 0.00 | 53 | 1013.5 |
| 20260504172710 | 67 | 345 | 2.0 | 3.0 | 0.00 | 0.00 | 0.00 | 53 | 1013.4 |
| 20260504172607 | 66 | 348 | 2.0 | 3.0 | 0.00 | 0.00 | 0.00 | 53 | 1013.4 |
| 20260504172507 | 67 | 352 | 2.0 | 3.0 | 0.00 | 0.00 | 0.00 | 53 | 1013.4 |
| 20260504172407 | 67 | 351 | 2.0 | 3.0 | 0.00 | 0.00 | 0.00 | 53 | 1013.4 |
| 20260504172307 | 67 | 355 | 2.0 | 3.0 | 0.00 | 0.00 | 0.00 | 53 | 1013.5 |
| 20260504172106 | 67 | 357 | 2.0 | 3.0 | 0.00 | 0.00 | 0.00 | 52 | 1013.3 |
| 20260504172010 | 67 | 346 | 2.0 | 3.0 | 0.00 | 0.00 | 0.00 | 52 | 1013.5 |
| 20260504171907 | 67 | 347 | 2.0 | 3.0 | 0.00 | 0.00 | 0.00 | 52 | 1013.5 |
| 20260504171806 | 67 | 354 | 2.0 | 3.0 | 0.00 | 0.00 | 0.00 | 53 | 1013.5 |
| 20260504171707 | 67 | 342 | 1.0 | 2.0 | 0.00 | 0.00 | 0.00 | 52 | 1013.5 |
| 20260504171606 | 67 | 1 | 0.0 | 1.0 | 0.00 | 0.00 | 0.00 | 52 | 1013.5 |
| 20260504171507 | 67 | 1 | 0.0 | 1.0 | 0.00 | 0.00 | 0.00 | 52 | 1013.5 |
| 20260504171406 | 67 | 0 | 0.0 | 0.0 | 0.00 | 0.00 | 0.00 | 52 | 1013.5 |